This is the latest recevied weather packets stored in our database for station/object SP2FH-13. If no packets are shown the sender has not sent any weather packets the latest 10 day(s).
| Time | Temp. | Humidity | Pressure | Rain* | Wind** | Luminosity | Snow |
|---|---|---|---|---|---|---|---|
| 1777908323 | 24.44° C | 39% | 999.9 hPa | - | - | 250 W/m² | - |
| 1777905614 | 25° C | 38% | 1000 hPa | - | - | 348 W/m² | - |
| 1777904712 | 25° C | 38% | 1000 hPa | - | - | 415 W/m² | - |
| 1777901699 | 25° C | 36% | 1000.2 hPa | - | - | 494 W/m² | - |
| 1777901398 | 25.56° C | 35% | 1000.3 hPa | - | - | 515 W/m² | - |
| 1777901096 | 26.11° C | 33% | 1000.2 hPa | - | - | 533 W/m² | - |
| 1777900795 | 25.56° C | 36% | 1000.3 hPa | - | - | 540 W/m² | - |
| 1777900494 | 25° C | 34% | 1000.2 hPa | - | - | 526 W/m² | - |
| 1777899290 | 25° C | 34% | 1000.4 hPa | - | - | 596 W/m² | - |
| 1777898386 | 25.56° C | 33% | 1000.6 hPa | - | - | 474 W/m² | - |
| 1777898085 | 25.56° C | 36% | 1000.5 hPa | - | - | 526 W/m² | - |
| 1777897784 | 25.56° C | 32% | 1000.6 hPa | - | - | 555 W/m² | - |
| 1777897483 | 25° C | 34% | 1000.6 hPa | - | - | 619 W/m² | - |
| 1777897182 | 25.56° C | 31% | 1000.6 hPa | - | - | 727 W/m² | - |
| 1777896881 | 25° C | 34% | 1000.6 hPa | - | - | 629 W/m² | - |
| 1777896579 | 26.11° C | 34% | 1000.6 hPa | - | - | 455 W/m² | - |
| 1777896278 | 25.56° C | 34% | 1000.7 hPa | - | - | 706 W/m² | - |
| 1777895977 | 25° C | 34% | 1000.7 hPa | - | - | 758 W/m² | - |
| 1777895676 | 24.44° C | 34% | 1000.8 hPa | - | - | 438 W/m² | - |
| 1777895375 | 24.44° C | 36% | 1000.8 hPa | - | - | 453 W/m² | - |
| 1777895074 | 25° C | 35% | 1000.9 hPa | - | - | 373 W/m² | - |
| 1777894770 | 25° C | 36% | 1000.9 hPa | - | - | 632 W/m² | - |
| 1777894470 | 24.44° C | 35% | 1001 hPa | - | - | 712 W/m² | - |
| 1777894168 | 25° C | 36% | 1001 hPa | - | - | 739 W/m² | - |
| 1777893867 | 25° C | 36% | 1000.9 hPa | - | - | 715 W/m² | - |
* Rain since midnight (hover to see other rain measurements)
** Current wind speed in m/s (hover to see current wind gust speed)